Francistown, Botswana

4:11 PM CAT on February 26, 2017 (GMT +0200)
Francistown

Weather History for FBFT - September, 2013

Change the Weather History Date:

Sunday, September 22, 2013

  Actual Average Record
Temperature  
Mean Temperature 64 °F -  
Max Temperature 68 °F 86 °F 98 °F (2005)
Min Temperature 60 °F 60 °F 51 °F (2015)
Degree Days  
Heating Degree Days 1    
Growing Degree Days 14 (Base 50)    
Moisture  
Dew Point 54 °F    
Average Humidity 71    
Maximum Humidity 77    
Minimum Humidity 60    
Precipitation  
Precipitation 0.00 in - - ()
Sea Level Pressure  
Sea Level Pressure 30.19 in    
Wind  
Wind Speed 17 mph ()    
Max Wind Speed 26 mph    
Max Gust Speed -    
Visibility 6.2 miles    
Events      
Averages and records for this station are not official NWS values.
T = Trace of Precipitation, MM = Missing Value Source: Averaged Metar Reports

Daily Weather History Graph

Daily Weather History Graph

Search for Another Location

Airport or City:

Trip Planner

Search our weather history database for the weather conditions in past years. The results will help you decide how hot, cold, wet, or windy it might be!

Date:

Astronomy

Sep. 22, 2013 Rise Set
Actual Time 5:59 AM CAT 6:06 PM CAT
Civil Twilight 5:37 AM CAT 6:28 PM CAT
Nautical Twilight 5:11 AM CAT 6:54 PM CAT
Astronomical Twilight 4:45 AM CAT 7:19 PM CAT
Moon 9:00 PM CAT (9/22) 7:49 AM CAT (9/22)
Length of Visible Light 12h 50m
Length of Day
12h 06m
Waning Gibbous, 90% of the Moon is Illuminated
Sep 22
Waning Gibbous
Sep 27
Last Quarter
Oct 5
New
Oct 12
First Quarter
Oct 19
Full

Hourly Weather History & Observations

Time (CAT) Temp. Dew Point Humidity Pressure Visibility Wind Dir Wind Speed Gust Speed Precip Events Conditions
12:00 AM 68.0 °F 59.0 °F 73% 30.12 in 6.2 mi East 19.6 mph - N/A   Partly Cloudy
1:00 AM - - N/A% 30.12 in 6.2 mi East 21.9 mph - N/A   Partly Cloudy
2:00 AM 66 °F 57 °F 65%  in 6 mi ESE 16.1 mph - -   Mostly Cloudy
2:00 AM 66.2 °F 57.2 °F 73% 30.12 in 6.2 mi ESE 16.1 mph - N/A   Mostly Cloudy
3:00 AM 66.2 °F 57.2 °F 73% 30.15 in 6.2 mi East 16.1 mph - N/A   Overcast
4:00 AM 64.4 °F 57.2 °F 77% 30.15 in 6.2 mi East 23.0 mph - N/A   Overcast
5:00 AM 64.4 °F 55.4 °F 73% 30.18 in 6.2 mi East 21.9 mph - N/A   Mostly Cloudy
6:00 AM 60.8 °F 53.6 °F 77% 30.21 in 6.2 mi East 21.9 mph - N/A   Overcast
7:00 AM 60.8 °F 53.6 °F 77% 30.21 in 6.2 mi East 25.3 mph - N/A   Overcast
8:00 AM 61 °F 53 °F 67%  in 6 mi East 26.5 mph - -   Partly Cloudy
8:00 AM 60.8 °F 53.6 °F 77% 30.24 in 6.2 mi East 26.5 mph - N/A   Overcast
9:00 AM 62.6 °F 53.6 °F 72% 30.24 in 6.2 mi East 17.3 mph - N/A   Overcast
10:00 AM 62.6 °F 53.6 °F 72% 30.24 in 6.2 mi East 18.4 mph - N/A   Overcast
11:00 AM 64.4 °F 53.6 °F 68% 30.24 in 6.2 mi East 18.4 mph - N/A   Overcast
12:00 PM 64.4 °F 53.6 °F 68% 30.21 in 6.2 mi East 13.8 mph - N/A   Overcast
1:00 PM 66.2 °F 53.6 °F 64% 30.18 in 6.2 mi ESE 18.4 mph - N/A   Overcast
2:00 PM 68.0 °F 53.6 °F 60% 30.15 in 6.2 mi ESE 19.6 mph - N/A   Overcast
3:00 PM 68.0 °F 53.6 °F 60% 30.15 in 6.2 mi East 16.1 mph - N/A   Mostly Cloudy
4:00 PM 66.2 °F 53.6 °F 64% 30.15 in 6.2 mi ESE 18.4 mph - N/A   Scattered Clouds
5:00 PM 64.4 °F 53.6 °F 68% 30.15 in 6.2 mi ESE 20.7 mph - N/A   Mostly Cloudy
6:00 PM 62.6 °F 53.6 °F 72% 30.18 in 6.2 mi ESE 19.6 mph - N/A   Mostly Cloudy
7:00 PM 62.6 °F 53.6 °F 72% 30.21 in 6.2 mi ESE 20.7 mph - N/A   Mostly Cloudy
8:00 PM 60.8 °F 53.6 °F 77% 30.24 in 6.2 mi ESE 16.1 mph - N/A   Scattered Clouds
9:00 PM 60.8 °F 53.6 °F 77% 30.27 in 6.2 mi ESE 13.8 mph - N/A   Scattered Clouds
10:00 PM 60.8 °F 53.6 °F 77% 30.27 in 6.2 mi East 18.4 mph - N/A   Overcast
11:00 PM 60.8 °F 53.6 °F 77% 30.27 in 6.2 mi East 19.6 mph - N/A   Overcast